Weather History for Hamilton, OH

Change the Weather History Date:

Sunday, August 18, 2013

  Actual Average (KCVG) Record (KCVG)
Temperature  
Mean Temperature 68 °F 75 °F  
Max Temperature 84 °F 85 °F 98 °F (1988)
Min Temperature 55 °F 65 °F 50 °F (1953)
Degree Days  
Heating Degree Days 0 0  
Month to date heating degree days 0  
Since 1 June heating degree days 15  
Since 1 July heating degree days 0  
Cooling Degree Days 4 10  
Month to date cooling degree days 189  
Year to date cooling degree days 848  
Since 1 June cooling degree days 754  
Growing Degree Days 18 (Base 50)    
Moisture  
Dew Point 59 °F    
Average Humidity 71    
Maximum Humidity 97    
Minimum Humidity 38    
Precipitation  
Precipitation 0.01 in 0.13 in 1.26 in (2001)
Month to date precipitation 2.06  
Year to date precipitation 28.44  
Snow  
Snow 0.00 in 0.00 in 0.00 in ()
Month to date snowfall 0.0  
Since 1 June snowfall 0.0  
Since 1 July snowfall 0.0  
Snow Depth -    
Sea Level Pressure  
Sea Level Pressure 30.15 in    
Wind  
Wind Speed 1 mph (NE)    
Max Wind Speed 7 mph    
Max Gust Speed -    
Visibility 8 miles    
Events      
T = Trace of Precipitation, MM = Missing Value Source: NWS Daily Summary

Daily Weather History Graph

Daily Weather History Graph

Search for Another Location

Airport:

Trip Planner

Search our weather history database for the weather conditions in past years. The results will help you decide how hot, cold, wet, or windy it might be!

Date:

Astronomy

Aug. 18, 2013 Rise Set
Actual Time 6:53 AM EDT 8:29 PM EDT
Civil Twilight 6:25 AM EDT 8:57 PM EDT
Nautical Twilight 5:51 AM EDT 9:31 PM EDT
Astronomical Twilight 5:14 AM EDT 10:07 PM EDT
Moon 6:34 PM EDT (8/18) 4:02 AM EDT (8/18)
Length of Visible Light 14h 32m
Length of Day
13h 35m
Waxing Gibbous, 92% of the Moon is Illuminated
Aug 18
Waxing Gibbous
Aug 20
Full
Aug 28
Last Quarter
Sep 5
New
Sep 12
First Quarter

Hourly Weather History & Observations

Time (EDT) Temp. Heat Index Dew Point Humidity Pressure Visibility Wind Dir Wind Speed Gust Speed Precip Events Conditions
12:53 AM 61.0 °F - 59.0 °F 93% 30.16 in 8.0 mi Calm Calm - N/A   Clear
1:53 AM 60.1 °F - 57.9 °F 93% 30.15 in 7.0 mi Calm Calm - N/A   Clear
2:53 AM 57.9 °F - 57.0 °F 97% 30.15 in 6.0 mi Calm Calm - N/A   Clear
3:53 AM 57.9 °F - 57.0 °F 97% 30.15 in 4.0 mi Calm Calm - N/A   Clear
4:53 AM 60.1 °F - 57.9 °F 93% 30.15 in 5.0 mi Calm Calm - N/A   Clear
5:53 AM 60.1 °F - 59.0 °F 96% 30.15 in 7.0 mi Calm Calm - N/A   Clear
6:53 AM 55.9 °F - 55.0 °F 97% 30.16 in 3.0 mi Calm Calm - N/A   Clear
7:53 AM 60.1 °F - 57.9 °F 93% 30.18 in 4.0 mi Calm Calm - 0.01 in   Clear
8:53 AM 68.0 °F - 61.0 °F 78% 30.19 in 10.0 mi ENE 3.5 mph - N/A   Clear
9:53 AM 72.0 °F - 61.0 °F 68% 30.19 in 10.0 mi East 5.8 mph - N/A   Clear
10:53 AM 75.9 °F - 62.1 °F 62% 30.20 in 10.0 mi NNE 3.5 mph - N/A   Clear
11:53 AM 78.1 °F - 59.0 °F 52% 30.19 in 10.0 mi Variable 3.5 mph - N/A   Clear
12:53 PM 79.0 °F - 57.9 °F 48% 30.18 in 10.0 mi Variable 6.9 mph - N/A   Partly Cloudy
1:53 PM 81.0 °F 80.7 °F 55.0 °F 41% 30.17 in 10.0 mi East 5.8 mph - N/A   Clear
2:53 PM 82.0 °F 81.3 °F 54.0 °F 38% 30.15 in 10.0 mi ENE 6.9 mph - N/A   Clear
3:53 PM 82.0 °F 81.6 °F 55.9 °F 41% 30.13 in 10.0 mi Calm Calm - N/A   Clear
4:53 PM 82.9 °F 82.6 °F 57.9 °F 42% 30.12 in 10.0 mi Calm Calm - N/A   Mostly Cloudy
5:53 PM 80.1 °F 80.6 °F 57.9 °F 47% 30.11 in 10.0 mi Calm Calm - N/A   Partly Cloudy
6:53 PM 80.1 °F 81.2 °F 62.1 °F 54% 30.11 in 10.0 mi Calm Calm - N/A   Partly Cloudy
7:53 PM 78.1 °F - 59.0 °F 52% 30.10 in 10.0 mi North 4.6 mph - N/A   Scattered Clouds
8:53 PM 70.0 °F - 61.0 °F 73% 30.12 in 10.0 mi NE 4.6 mph - N/A   Mostly Cloudy
9:53 PM 70.0 °F - 64.9 °F 84% 30.14 in 10.0 mi Calm Calm - N/A   Clear
10:53 PM 68.0 °F - 64.0 °F 87% 30.14 in 10.0 mi Calm Calm - N/A   Clear
11:53 PM 66.9 °F - 63.0 °F 87% 30.14 in 10.0 mi Calm Calm - N/A   Clear